YAOGAN-43 01J (60466 NORAD) Tracking and Keplerian Element Data

This shows tracking and keplerian element data for the satellite.

Feedback or suggestion? Click here.




ElementValue
Catalog60466
NameYAOGAN-43 01J
Epoch Orbit871
Epoch Day286.79019126
Epoch Year2024
RAAN54.0176
Inclination35.001
Eccentricity0.0007782
Argument of Perigee59.5423
Mean Anonmoly300.6059
Mean Motion15.22507614
Decay Rate0.00027351
L11 60466U 24148J 24286.79019126 .00027351 00000+0 11485-2 0 9996
L22 60466 35.0010 54.0176 0007782 59.5423 300.6059 15.22507614 8710



Live tracking and technical data element details for YAOGAN-43 01J (NORAD 60466). YAOGAN-43 01J can be tracked NOW for your location showing map with azimuth and elevation plus other details from your city location.







IsCatalogInMostPopularTable: catalog: 60466, numindb: 6
Update: records affected: 1



GetName: 60466 YAOGAN-43 01J

Hit Count: updated at: Tue, 03 Dec 2024 01:42:02 GMT